Location: Grange Verzio
(44.5000°N, 6.9833°E)
Time: 06:49:31
(UTC+00:00)

Okean O Rocket - Pass Details

Date: 01 February 2023
Orbit: 620 x 643 km, 98.1° (Epoch: 21 March)

Event Time Altitude Azimuth Distance (km) Brightness Sun altitude
Rises 18:32:04 0° 161° (SSE) 2,903 4.9 -20.0°
Reaches altitude 10° 18:34:14 10° 159° (SSE) 2,003 4.0 -20.4°
Maximum altitude 18:38:35 75° 75° (ENE) 659 1.4 -21.2°
Drops below altitude 10° 18:43:01 10° 350° (N) 2,034 4.3 -22.0°
Sets 18:45:14 0° 349° (N) 2,951 5.2 -22.4°
